Location: Muenchen
(48.1800°N, 11.5800°E)
Time: 10:52:28
(UTC+01:00)

Tiros 1 - Visible Passes

Search period start: 31 October 2014 00:00
Search period end: 10 November 2014 00:00
Orbit: 633 x 667 km, 48.4° (Epoch: 31 October)

Date Brightness Start Highest point End Pass type
(mag) Time Alt. Az. Time Alt. Az. Time Alt. Az.
31 Oct 9.1 19:27:03 10° SSW 19:28:27 17° S 19:28:27 17° S visible
01 Nov 9.0 18:13:57 10° SSE 18:16:16 14° SE 18:16:58 13° SE visible
01 Nov 9.2 19:53:17 10° SW 19:54:43 19° SW 19:54:43 19° SW visible
02 Nov 8.2 18:38:58 10° SSW 18:42:50 26° SE 18:43:08 26° SE visible
02 Nov 9.7 20:20:01 10° WSW 20:20:53 15° WSW 20:20:53 15° WSW visible
03 Nov 9.2 17:26:01 10° SSE 17:28:09 13° SE 17:30:17 10° ESE visible
03 Nov 7.6 19:05:09 10° SW 19:09:13 44° SSE 19:09:13 44° SSE visible
04 Nov 8.4 17:50:53 10° SSW 17:54:42 25° SE 17:57:29 15° E visible
04 Nov 7.9 19:31:52 10° WSW 19:35:13 46° SW 19:35:13 46° SW visible
05 Nov 7.7 18:17:01 10° SW 18:21:26 44° SSE 18:23:25 28° E visible
05 Nov 8.9 19:58:51 10° W 20:01:09 29° W 20:01:09 29° W visible
06 Nov 7.1 18:43:42 10° WSW 18:48:20 68° SSE 18:49:19 52° ESE visible
06 Nov 9.7 20:25:56 10° W 20:27:02 17° W 20:27:02 17° W visible
07 Nov 7.8 17:28:52 10° SW 17:33:17 43° SSE 17:37:26 11° E visible
07 Nov 7.0 19:10:40 10° W 19:15:09 83° WSW 19:15:09 83° WSW visible
08 Nov 7.2 17:55:32 10° WSW 18:00:10 67° SSE 18:03:15 20° E visible
08 Nov 8.1 19:37:45 10° W 19:40:59 44° W 19:40:59 44° W visible
09 Nov 7.0 18:22:29 10° W 18:27:10 87° S 18:29:04 36° E visible
09 Nov 9.2 20:04:49 10° W 20:06:47 25° W 20:06:47 25° W visible
